• In Hungary
  • List of Countries
  • For 7 days
  • Water Temperature
  • Satellite Maps
  • Weather Map
  • News
  • Weather Widgets
  • user-avatar
    Login

    Hourly Weather San Rafael

    Today, 23 October, Monday

    Time Temperature Precipitation Wind Pressure Humidity
    00:00 +15°C° 0 mm 0 mps 612 mmHg 94%
    01:00 +15°C° 0.2 mm 0 mps 612 mmHg 94%
    02:00 +15°C° 0.2 mm 0 mps 612 mmHg 94%
    03:00 +15°C° 0.2 mm 0 mps 611 mmHg 94%
    04:00 +15°C° 0.2 mm 0 mps 611 mmHg 94%
    05:00 +15°C° 0.2 mm 0 mps 611 mmHg 93%
    06:00 +15°C° 0.2 mm 0 mps 612 mmHg 93%
    07:00 +16°C° 0.2 mm 0 mps 612 mmHg 89%
    08:00 +19°C° 0.2 mm 1 mps 613 mmHg 84%
    09:00 +20°C° 0.2 mm 1 mps 614 mmHg 80%
    10:00 +20°C° 1.1 mm 1 mps 613 mmHg 80%
    11:00 +21°C° 1.1 mm 1 mps 613 mmHg 81%
    12:00 +21°C° 1.1 mm 1 mps 613 mmHg 81%
    13:00 +20°C° 2.2 mm 1 mps 612 mmHg 83%
    14:00 +20°C° 2.2 mm 1 mps 612 mmHg 85%
    15:00 +19°C° 2.2 mm 1 mps 611 mmHg 87%
    16:00 +19°C° 2.3 mm 1 mps 611 mmHg 90%
    17:00 +18°C° 2.3 mm 1 mps 611 mmHg 92%
    18:00 +15°C° 2.3 mm 0 mps 611 mmHg 95%
    19:00 +15°C° 1.1 mm 0 mps 611 mmHg 95%
    20:00 +15°C° 1.1 mm 0 mps 612 mmHg 95%
    21:00 +15°C° 1.1 mm 0 mps 612 mmHg 95%
    22:00 +15°C° 0.7 mm 0 mps 612 mmHg 95%
    23:00 +15°C° 0.7 mm 0 mps 612 mmHg 95%

    Tomorrow, 24 October, Tuesday

    Time Temperature Precipitation Wind Pressure Humidity
    00:00 +15°C° 0.7 mm 0 mps 611 mmHg 95%
    01:00 +15°C° 0.6 mm 0 mps 611 mmHg 94%
    02:00 +15°C° 0.6 mm 0 mps 611 mmHg 94%
    03:00 +15°C° 0.6 mm 0 mps 610 mmHg 94%
    04:00 +15°C° 0.5 mm 0 mps 610 mmHg 94%
    05:00 +15°C° 0.5 mm 0 mps 611 mmHg 93%
    06:00 +16°C° 0.5 mm 1 mps 611 mmHg 93%
    07:00 +18°C° 0.5 mm 1 mps 612 mmHg 90%
    08:00 +19°C° 0.5 mm 1 mps 612 mmHg 86%
    09:00 +20°C° 0.5 mm 1 mps 613 mmHg 83%
    10:00 +20°C° 1.4 mm 1 mps 613 mmHg 83%
    11:00 +20°C° 1.4 mm 1 mps 613 mmHg 83%
    12:00 +20°C° 1.4 mm 1 mps 612 mmHg 83%
    13:00 +20°C° 4.1 mm 1 mps 612 mmHg 86%
    14:00 +19°C° 4.1 mm 1 mps 611 mmHg 89%
    15:00 +18°C° 4.1 mm 1 mps 610 mmHg 92%
    16:00 +18°C° 6.2 mm 1 mps 610 mmHg 93%
    17:00 +16°C° 6.2 mm 1 mps 610 mmHg 94%
    18:00 +15°C° 6.2 mm 0 mps 611 mmHg 95%
    19:00 +15°C° 3.3 mm 0 mps 611 mmHg 95%
    20:00 +15°C° 3.3 mm 0 mps 612 mmHg 95%
    21:00 +15°C° 3.3 mm 0 mps 612 mmHg 95%
    22:00 +15°C° 2 mm 0 mps 612 mmHg 95%
    23:00 +14°C° 2 mm 0 mps 611 mmHg 95%

    Day after tomorrow, 25 October, Wednesday

    Time Temperature Precipitation Wind Pressure Humidity
    00:00 +14°C° 2 mm 0 mps 611 mmHg 96%
    01:00 +14°C° 1.3 mm 0 mps 611 mmHg 96%
    02:00 +14°C° 1.3 mm 0 mps 610 mmHg 96%
    03:00 +14°C° 1.3 mm 0 mps 610 mmHg 95%
    04:00 +14°C° 1.5 mm 0 mps 610 mmHg 95%
    05:00 +14°C° 1.5 mm 0 mps 610 mmHg 94%
    06:00 +15°C° 1.5 mm 1 mps 610 mmHg 94%
    07:00 +16°C° 0.9 mm 1 mps 611 mmHg 92%
    08:00 +18°C° 0.9 mm 1 mps 612 mmHg 90%
    09:00 +18°C° 0.9 mm 1 mps 613 mmHg 88%
    10:00 +19°C° 1 mm 1 mps 612 mmHg 88%
    11:00 +19°C° 1 mm 1 mps 612 mmHg 88%
    12:00 +19°C° 1 mm 1 mps 612 mmHg 88%
    13:00 +18°C° 2.9 mm 1 mps 611 mmHg 90%
    14:00 +18°C° 2.9 mm 1 mps 610 mmHg 92%
    15:00 +18°C° 2.9 mm 1 mps 610 mmHg 94%
    16:00 +16°C° 7.6 mm 1 mps 610 mmHg 95%
    17:00 +16°C° 7.6 mm 1 mps 610 mmHg 96%
    18:00 +16°C° 7.6 mm 1 mps 610 mmHg 97%
    19:00 +16°C° 5.7 mm 1 mps 611 mmHg 97%
    20:00 +15°C° 5.7 mm 1 mps 611 mmHg 97%
    21:00 +15°C° 5.7 mm 1 mps 612 mmHg 96%
    22:00 +15°C° 3.7 mm 1 mps 611 mmHg 96%
    23:00 +15°C° 3.7 mm 1 mps 611 mmHg 96%

    26 October, Thursday

    Time Temperature Precipitation Wind Pressure Humidity
    00:00 +15°C° 3.7 mm 1 mps 610 mmHg 96%
    01:00 +15°C° 4.4 mm 1 mps 610 mmHg 95%
    02:00 +15°C° 4.4 mm 1 mps 610 mmHg 94%
    03:00 +14°C° 4.4 mm 1 mps 610 mmHg 94%
    04:00 +14°C° 5.5 mm 2 mps 610 mmHg 93%
    05:00 +14°C° 5.5 mm 2 mps 610 mmHg 93%
    06:00 +14°C° 5.5 mm 2 mps 610 mmHg 93%
    07:00 +15°C° 1.9 mm 2 mps 611 mmHg 91%
    08:00 +15°C° 1.9 mm 2 mps 612 mmHg 90%
    09:00 +15°C° 1.9 mm 2 mps 612 mmHg 88%
    10:00 +15°C° 2 mm 2 mps 612 mmHg 88%
    11:00 +14°C° 2 mm 3 mps 612 mmHg 88%
    12:00 +14°C° 2 mm 3 mps 611 mmHg 88%
    13:00 +13°C° 1.4 mm 3 mps 611 mmHg 88%
    14:00 +13°C° 1.4 mm 3 mps 611 mmHg 87%
    15:00 +13°C° 1.4 mm 3 mps 610 mmHg 86%
    16:00 +13°C° 1.1 mm 3 mps 610 mmHg 86%
    17:00 +13°C° 1.1 mm 3 mps 611 mmHg 86%
    18:00 +12°C° 1.1 mm 3 mps 611 mmHg 86%
    19:00 +13°C° 0.9 mm 2 mps 612 mmHg 86%
    20:00 +13°C° 0.9 mm 2 mps 612 mmHg 85%
    21:00 +13°C° 0.9 mm 2 mps 612 mmHg 85%
    22:00 +13°C° 0.8 mm 2 mps 612 mmHg 85%
    23:00 +13°C° 0.8 mm 2 mps 612 mmHg 85%

    27 October, Friday

    Time Temperature Precipitation Wind Pressure Humidity
    00:00 +13°C° 0.8 mm 2 mps 611 mmHg 85%
    01:00 +13°C° 0.7 mm 2 mps 611 mmHg 85%
    02:00 +13°C° 0.7 mm 2 mps 611 mmHg 85%
    03:00 +13°C° 0.7 mm 2 mps 611 mmHg 85%
    04:00 +13°C° 0.5 mm 2 mps 611 mmHg 85%
    05:00 +13°C° 0.5 mm 2 mps 611 mmHg 84%
    06:00 +13°C° 0.5 mm 1 mps 612 mmHg 84%
    07:00 +14°C° 0.2 mm 1 mps 613 mmHg 80%
    08:00 +15°C° 0.2 mm 1 mps 613 mmHg 76%
    09:00 +16°C° 0.2 mm 1 mps 614 mmHg 72%
    10:00 +18°C° 0 mm 1 mps 614 mmHg 70%
    11:00 +18°C° 0 mm 1 mps 614 mmHg 67%
    12:00 +19°C° 0 mm 1 mps 613 mmHg 64%
    13:00 +18°C° 0 mm 1 mps 613 mmHg 65%
    14:00 +18°C° 0 mm 1 mps 613 mmHg 66%
    15:00 +18°C° 0 mm 1 mps 612 mmHg 67%
    16:00 +16°C° 0 mm 1 mps 612 mmHg 71%
    17:00 +15°C° 0 mm 1 mps 612 mmHg 75%
    18:00 +14°C° 0 mm 1 mps 612 mmHg 79%
    19:00 +13°C° 0 mm 1 mps 613 mmHg 76%
    20:00 +13°C° 0 mm 1 mps 613 mmHg 73%
    21:00 +13°C° 0 mm 1 mps 614 mmHg 71%
    22:00 +13°C° 0 mm 1 mps 613 mmHg 69%
    23:00 +13°C° 0 mm 1 mps 613 mmHg 68%

    28 October, Saturday

    Time Temperature Precipitation Wind Pressure Humidity
    00:00 +13°C° 0 mm 1 mps 612 mmHg 67%
    01:00 +13°C° 0 mm 1 mps 612 mmHg 66%
    02:00 +13°C° 0 mm 1 mps 612 mmHg 65%
    03:00 +12°C° 0 mm 1 mps 611 mmHg 65%
    04:00 +12°C° 0 mm 1 mps 612 mmHg 64%
    05:00 +13°C° 0 mm 1 mps 612 mmHg 64%
    06:00 +13°C° 0 mm 1 mps 612 mmHg 64%
    07:00 +15°C° 0 mm 1 mps 614 mmHg 58%
    08:00 +19°C° 0 mm 1 mps 615 mmHg 52%
    09:00 +22°C° 0 mm 1 mps 616 mmHg 46%
    10:00 +22°C° 0 mm 1 mps 616 mmHg 47%
    11:00 +22°C° 0 mm 1 mps 616 mmHg 48%
    12:00 +23°C° 0 mm 2 mps 615 mmHg 50%
    13:00 +22°C° 0.1 mm 1 mps 615 mmHg 56%
    14:00 +21°C° 0.1 mm 1 mps 614 mmHg 62%
    15:00 +20°C° 0.1 mm 1 mps 613 mmHg 68%
    16:00 +19°C° 0.4 mm 1 mps 613 mmHg 75%
    17:00 +18°C° 0.4 mm 1 mps 613 mmHg 82%
    18:00 +15°C° 0.4 mm 1 mps 613 mmHg 90%
    19:00 +15°C° 0.2 mm 1 mps 613 mmHg 90%
    20:00 +15°C° 0.2 mm 1 mps 614 mmHg 90%
    21:00 +15°C° 0.2 mm 1 mps 614 mmHg 90%
    22:00 +15°C° 0 mm 1 mps 613 mmHg 90%
    23:00 +14°C° 0 mm 1 mps 613 mmHg 89%

    29 October, Sunday

    Time Temperature Precipitation Wind Pressure Humidity
    00:00 +14°C° 0 mm 1 mps 612 mmHg 89%
    01:00 +14°C° 0 mm 1 mps 612 mmHg 87%
    02:00 +13°C° 0 mm 1 mps 612 mmHg 85%
    03:00 +13°C° 0 mm 1 mps 612 mmHg 84%
    04:00 +13°C° 0 mm 1 mps 612 mmHg 82%
    05:00 +13°C° 0 mm 1 mps 612 mmHg 81%
    06:00 +13°C° 0 mm 1 mps 612 mmHg 80%
    07:00 +15°C° 0 mm 1 mps 613 mmHg 75%
    08:00 +19°C° 0 mm 1 mps 614 mmHg 69%
    09:00 +21°C° 0 mm 1 mps 616 mmHg 64%
    10:00 +21°C° 0 mm 1 mps 615 mmHg 64%
    11:00 +21°C° 0 mm 2 mps 615 mmHg 64%
    12:00 +21°C° 0 mm 2 mps 614 mmHg 64%
    13:00 +20°C° 0.2 mm 2 mps 614 mmHg 70%
    14:00 +19°C° 0.2 mm 2 mps 613 mmHg 77%
    15:00 +18°C° 0.2 mm 2 mps 612 mmHg 83%
    16:00 +18°C° 0.4 mm 1 mps 612 mmHg 87%
    17:00 +16°C° 0.4 mm 1 mps 612 mmHg 90%
    18:00 +15°C° 0.4 mm 1 mps 612 mmHg 94%
    19:00 +15°C° 0.3 mm 1 mps 613 mmHg 94%
    20:00 +15°C° 0.3 mm 1 mps 613 mmHg 93%
    21:00 +15°C° 0.3 mm 1 mps 613 mmHg 93%
    22:00 +15°C° 0.4 mm 1 mps 613 mmHg 92%
    23:00 +15°C° 0.4 mm 1 mps 613 mmHg 92%
    Show more